Regional Weather Roundup
Issued by NWS

Home | Current Version | Previous Version | Graphics & Text | Print | Product List | Glossary On
Versions: 1 2 3 4 5 6 7 8 9 10 11 12 13 14 15 16 17 18 19 20 21 22 23 24 25 26 27 28 29 30 31 32 33 34 35 36 37 38 39 40 41 42 43 44 45 46 47 48 49 50
000
ASUS43 KDMX 032006
RWRIA

WEATHER ROUNDUP FOR IOWA
NATIONAL WEATHER SERVICE DES MOINES IA
200 PM CST SAT DEC 03 2016

NOTE: "FAIR" INDICATES FEW OR NO CLOUDS BELOW 12,000 FEET WITH NO
SIGNIFICANT WEATHER AND/OR OBSTRUCTIONS TO VISIBILITY.

* - THESE STATIONS ARE NOT NWS STATIONS...THUS NOT UNDER NWS
QUALITY CONTROL.  THEY ALSO DO NOT REPORT WEATHER SUCH
AS PRECIPITATION OR FOG.

IAZ001>003-012>014-020>022-031>034-043>046-032100-
   NORTHWEST IOWA

CITY           SKY/WX    TMP DP  RH WIND       PRES   REMARKS
CARROLL *      CLOUDY    37  32  81 S9        30.22F WCI  31
CHEROKEE *     MIX PCPN  35  33  94 S8        30.21F WCI  28
DENISON *      LGT SNOW  34  32  93 S6        30.20F WCI  29
LE MARS *      MIX PCPN  34  32  93 S13       30.19F WCI  25
ORANGE CITY *  LGT SNOW  34  32  93 S16       30.17F WCI  23
SHELDON *      CLOUDY    36  34  93 S18       30.16F WCI  25
SIOUX CITY     LGT SNOW  36  33  89 S12       30.20F FOG     WCI  28
SPENCER        CLOUDY    37  32  82 S22       30.19F WCI  26
STORM LAKE *   MIX PCPN  36  32  87 S13       30.20F WCI  27
$$

IAZ055>058-069>071-079>083-090>094-032100-
   SOUTHWEST IOWA

CITY           SKY/WX    TMP DP  RH WIND       PRES   REMARKS
ATLANTIC *     MIX PCPN  37  32  81 S6        30.22F WCI  33
AUDUBON *      CLOUDY    39  32  75 S6        30.23F WCI  35
CLARINDA *       N/A     39  32  75 SE5       30.24F
COUNCIL BLFS * SNOW      32  32 100 SE7       30.21F VSB 1/2 WCI  26
CRESTON *      CLOUDY    39  32  75 SE8       30.23F WCI  34
HARLAN  *      LGT SNOW  34  34 100 S8        30.25F WCI  27
LAMONI         CLOUDY    41  31  67 SE6       30.22F
RED OAK *      LGT SNOW  34  34 100 CALM      30.24F
SHENANDOAH *   MIX PCPN  36  34  93 NE6       30.23F WCI  31
$$

IAZ047>049-059>061-072>074-084-032100-
   CENTRAL IOWA

CITY           SKY/WX    TMP DP  RH WIND       PRES   REMARKS
AMES           CLOUDY    40  32  73 S8        30.24F WCI  34
ANKENY *       PTSUNNY   41  34  75 SE10      30.26F
BOONE *        CLOUDY    39  30  70 S9        30.23F WCI  33
CHARITON *       N/A     41  32  70 SE7       30.23F
DES MOINES     CLOUDY    41  30  65 S12       30.25F
GRINNELL*      CLOUDY    38  30  74 S8        30.28F WCI  32
KNOXVILLE *    MOSUNNY   41  30  65 SE8       30.25F
MARSHALLTOWN   CLOUDY    39  30  70 S7        30.25F WCI  34
NEWTON *       CLOUDY    39  30  70 S10       30.25F WCI  32
PELLA *        PTSUNNY   40  31  70 SE8       30.27F WCI  35
PERRY *        CLOUDY    40  33  76 SE9       30.24F WCI  34
$$

IAZ004>006-015-016-023>025-035-036-032100-
   NORTH CENTRAL IOWA

CITY           SKY/WX    TMP DP  RH WIND       PRES   REMARKS
ALGONA *       CLOUDY    37  32  81 S13       30.21F WCI  29
CLARION *      CLOUDY    37  32  81 S8        30.23F WCI  31
ESTHERVILLE    CLOUDY    36  32  85 S13       30.18F WCI  27
FORT DODGE *   CLOUDY    37  28  70 S9        30.24S WCI  31
MASON CITY     CLOUDY    36  27  69 S7        30.25F WCI  30
FOREST CITY *  CLOUDY    36  30  80 S5        30.22F WCI  32
WEBSTER CITY * CLOUDY    39  32  75 S8        30.22F WCI  34
IOWA FALLS *   PTSUNNY   39  30  69 S5        30.25F
$$

IAZ007>011-017>019-026>030-037>042-050>054-066-032100-
   NORTHEAST IOWA

CITY           SKY/WX    TMP DP  RH WIND       PRES   REMARKS
CEDAR RAPIDS   CLOUDY    38  30  73 SW8       30.28F WCI  32
CHARLES CITY * PTSUNNY   36  27  69 SW6       30.26F WCI  31
CLINTON *      CLOUDY    38  27  64 SW8       30.31F WCI  32
DECORAH *      PTSUNNY   34  23  64 NW5       30.25F WCI  30
DUBUQUE        CLOUDY    34  26  72 SW6       30.29F WCI  29
MONTICELLO *   CLOUDY    37  27  65 W6        30.29S WCI  33
OELWEIN *      PTSUNNY   36  25  64 S6        30.26F WCI  31
WATERLOO       PTSUNNY   39  25  57 SW7       30.26F WCI  34
$$

IAZ064-065-067-068-078-032100-
   EAST CENTRAL IOWA

CITY           SKY/WX    TMP DP  RH WIND       PRES   REMARKS
DAVENPORT      CLOUDY    38  26  62 SW8       30.31F WCI  32
IOWA CITY      CLOUDY    39  28  64 S8        30.32F WCI  33
MUSCATINE *    CLOUDY    39  27  60 S6        30.32F WCI  35
QUAD CITIES    CLOUDY    39  25  57 S6        30.31F WCI  35
$$

IAZ062-063-075>077-085>089-095>099-032100-
   SOUTHEAST IOWA

CITY           SKY/WX    TMP DP  RH WIND       PRES   REMARKS
BURLINGTON     MOSUNNY   39  30  70 SE8       30.30F WCI  33
FAIRFIELD *    CLOUDY    39  28  65 SE7       30.28F WCI  34
FORT MADISON * SUNNY     39  30  70 SE5       30.30F
KEOKUK *       CLOUDY    41  32  70 SE8       30.28F
OSKALOOSA *    PTSUNNY   40  30  68 SE7       30.28F WCI  35
CENTERVILLE *    N/A     41  32  70 E8        30.27F
OTTUMWA        CLOUDY    41  29  62 SE6       30.28F
WASHINGTON *   CLOUDY    39  28  65 SW7       30.30F WCI  34
$$

ABBREVIATIONS USED IN REMARKS
   TC - TEMPERATURES IN CELSIUS
  WCI - WIND CHILL INDEX
   HX - HEAT INDEX
  VSB - VISIBILITY
$$





USA.gov is the U.S. government's official web portal to all federal, state and local government web resources and services.